Simultaneous Nadir Overpasses (SNOs) Predictions

Prediction of SNOs between METOP-B and NOAA-19 Satellite Orbit:

Table of predicted SNOs for the next 14.0 days since TLE Epoch: 9/21/2024
Index Date (METOP-B) Time (METOP-B) Lat,Lon (METOP-B) SZA (METOP-B ) Date (NOAA-19) Time (NOAA-19) Lat,Lon (NOAA-19) SZA (NOAA-19 ) Distance(km) Time Diff (sec)
1 09/22/2024 18:47:54 -75.46,-177.86 85.91 09/22/2024 18:46:48 -75.44,-177.77 85.95 3.01 66
2 09/22/2024 19:38:32 75.27, -9.99 94.29 09/22/2024 19:37:39 75.26, -9.92 94.25 2.95 53
3 09/22/2024 20:29:04 -74.91, 158.39 85.35 09/22/2024 20:28:34 -74.91, 158.39 85.38 0.16 30
4 09/22/2024 21:19:40 74.62, -33.52 94.94 09/22/2024 21:19:23 74.62, -33.51 94.93 0.22 17
5 09/22/2024 22:10:12 -74.25, 134.78 84.70 09/22/2024 22:10:18 -74.27, 134.71 84.71 2.80 6
6 09/22/2024 23:00:46 73.86, -56.94 95.69 09/22/2024 23:01:05 73.88, -57.00 95.69 2.57 19
7 09/22/2024 23:51:11 -73.13, 112.03 83.62 09/22/2024 23:51:52 -73.13, 112.04 83.57 0.56 41
8 09/23/2024 00:41:45 72.72, -79.79 96.77 09/23/2024 00:42:39 72.72, -79.77 96.84 1.12 54
9 09/23/2024 01:29:37 -63.75, 99.43 75.52 09/23/2024 01:30:53 -63.87, 99.92 75.27 27.05 76
10 10/04/2024 17:59:09 -76.86,-170.50 82.62 10/04/2024 17:58:13 -76.87,-170.53 82.68 0.92 56
11 10/04/2024 18:49:46 76.67, -2.42 97.60 10/04/2024 18:49:02 76.66, -2.37 97.58 1.87 44
12 10/04/2024 19:40:18 -76.30, 166.24 82.01 10/04/2024 19:39:57 -76.29, 166.32 82.01 2.92 21
13 10/04/2024 20:30:58 76.24, -26.21 98.07 10/04/2024 20:30:50 76.24, -26.24 98.06 0.88 8
14 10/04/2024 21:21:29 -75.82, 142.52 81.50 10/04/2024 21:21:44 -75.82, 142.53 81.48 0.19 15
15 10/04/2024 22:12:05 75.57, -49.34 98.77 10/04/2024 22:12:32 75.55, -49.27 98.82 2.87 27
16 10/04/2024 23:02:39 -75.28, 118.84 80.94 10/04/2024 23:03:30 -75.30, 118.77 80.91 2.63 51



Historial Predications of SNOs between METOP-B and NOAA-19
